{"data":{"norad_id":64017,"intl_designator":"2025-101Z","name":"STARLINK-34161","alt_names":[],"object_type":"PAYLOAD","status":"ACTIVE","operator":null,"country":"US","launch_date":"2025-05-14","launch_site_code":"AFETR","launch_vehicle":null,"mission":null,"orbit_class":"UNKNOWN","rcs_meters":null,"size_class":null,"mass_kg":null,"dimensions":null,"purposes":["comms"],"wikipedia_slug":null,"has_3d_model":false,"image_url":null,"decayed_at":null,"tle_current":{"epoch":"2026-09-20T12:29:20.939136Z","epoch_age_seconds":141818,"freshness":"FRESH","line1":"1 64017U 25101Z   26263.52038124  .00007987  00000+0  29939-3 0  9996","line2":"2 64017  43.0012 337.5173 0000924 263.0026  97.0720 15.27586039 76850","mean_motion":15.27586039,"eccentricity":9.24e-5,"inclination_deg":43.0012,"raan_deg":337.5173,"arg_perigee_deg":263.0026,"mean_anomaly_deg":97.072,"bstar":0.00029939,"rev_number":7685,"period_min":94.266376049277,"perigee_km":482.39704123629,"apogee_km":483.66498508512,"semimajor_km":6861.1680131607,"source":"CELESTRAK","updated_at":"2026-09-21T09:00:35.184614Z"}}}